map of FYV home
FYV - Airport
Location
City:  Fayetteville, Arkansas, United States
Name:Drake Field
ICAO:KFYV
IATA:FYV
FAA LID:FYV

Details
Type:Airport (Part 139 Class IV)
Use:Public/Civil
Latitude:3600'18"N (36.005083)
Longitude:9410'12"W (-94.170055)
Datum:WGS 1984
Elevation:1252 ft (382 m)
Variation:1.42E (WMM2015 magnetic declination)
-0.10 annual change
Runways:1
Longest:6005 × 100 ft (1830 × 30.5 m), paved

Time
Time Zone:UTC-6 (DST-5)
Local Time:

Weather
METAR:KFYV 210653Z AUTO 00000KT 10SM CLR M03/M04 A3033 RMK AO2 SLP278 T10331044
TAF:KFYV 210526Z 2106/2206 00000KT P6SM SKC
FM211700 21006KT P6SM SCT250
FM220000 20003KT P6SM SCT250

Related Locations
Nearby:
Farthest:YAUG: 10786 mi / 17358 km
Augusta [Augusta Airport], WA, AU

Find:

   beyond  
but within

Other Information
Maps:
NOTAMs:
Links:
Sources:

  
  • flag of United States
  • flag of Arkansas
  

Airport Diagram

Airport diagram for FYV

Airport diagram PDF

Sectional Chart

Flight Planning
at skyvector.com

Satellite Image

Google Maps Satellite view

 

Copyright © 2004-2018 Karl L. Swartz. All rights reserved.
The Great Circle Mapper name and logo are trademarks of the Great Circle Mapper.
All other trademarks mentioned herein belong to their respective owners.
Please see credits for attibutions and further copyright information.

  Follow gcmap on Facebook Follow gcmap on Twitter Follow gcmap on Google+ GCmap on LinkedIn

hCard Microformat

Geo Microformat